Location: Borovany
(48.8998°N, 14.6429°E)
Time: 12:05:25
(UTC+00:00)

Daily predictions for brighter satellites

Satellite Brightness Start Highest point End
(mag) Time Altitude Azimuth Time Altitude Azimuth Time Altitude Azimuth
ATLAS CENTAUR R/B 3.7 18:29:15 10° N 18:30:28 11° NNE 18:31:43 10° NE
CSL-04 Debris 4.3 18:25:59 10° SSE 18:31:22 66° ENE 18:36:48 10° N
Cosmos 1346 Rocket 3.4 18:28:19 10° SSW 18:32:05 59° WNW 18:35:52 10° N
ATLAS 3B R/B 3.0 18:29:20 10° SSW 18:36:06 51° ESE 18:43:22 10° NE
Cosmos 371 Rocket 3.9 18:33:09 10° NNW 18:37:42 40° ENE 18:42:12 10° SE
SL-4 R/B 2.3 18:35:17 10° WNW 18:38:56 53° N 18:42:22 10° E
COSMOS 2455 4.0 18:33:45 10° NNW 18:39:06 32° NE 18:44:27 10° E
CSL-04 Rocket 3.7 18:34:22 10° SSE 18:39:51 71° ENE 18:45:17 10° N
SJ-6B 3.8 18:36:53 10° S 18:40:44 49° W 18:44:38 10° NNW
In-Cosmos 22 Rocket 4.3 18:38:32 10° NNW 18:44:00 83° W 18:49:34 10° S
Cosmos 2181 Rocket 4.2 18:40:12 10° SSW 18:46:24 81° W 18:52:45 10° N
Okean 2 Rocket 4.0 18:43:13 10° SSE 18:47:09 30° E 18:51:05 10° NNE
MOS 1-B 4.4 18:43:01 10° SSE 18:48:50 87° WSW 18:54:40 10° NNW
Cosmos 1992 Rocket 4.1 18:44:00 10° SSW 18:49:13 88° WNW 18:54:29 10° NNE
CZ-4C R/B 3.8 18:43:40 10° NW 18:49:44 37° NNE 18:57:07 10° E
SPOT 5 3.9 18:47:01 10° SE 18:51:45 34° ENE 18:56:24 10° N
Cosmos 2297 Rocket 3.0 18:48:50 10° NNW 18:54:05 37° NE 18:58:46 13° ESE
Cosmos 2369 Rocket 3.9 18:52:47 10° WSW 18:58:02 37° NW 19:03:17 10° NNE
Cosmos 1503 Rocket 4.2 18:52:45 10° NNW 18:58:07 65° ENE 19:03:17 11° SE
Cosmos 1354 Rocket 4.3 18:55:45 10° NNW 19:00:59 53° ENE 19:05:34 13° SE
Cosmos 1656 4.4 18:56:15 10° SSE 19:01:03 30° ESE 19:05:48 10° NE
BlueWalker 3 2.6 18:58:21 10° SSW 19:01:46 32° SE 19:05:12 10° ENE
Terra 3.2 19:01:25 13° ESE 19:04:27 23° ENE 19:08:09 10° N
ATLAS 5 CENTAUR R/B 1.4 19:02:43 10° SW 19:06:03 66° NW 19:09:50 10° NE
PSLV R/B 4.2 19:04:04 10° S 19:07:44 61° WSW 19:11:30 10° NNW
Cosmos 2098 Rocket 3.5 19:03:36 10° SSW 19:08:17 64° W 19:12:08 10° N
CARTOSAT-1 3.7 19:04:10 10° S 19:08:26 74° WSW 19:12:43 10° NNW
Iridium 4 Rocket 4.3 19:04:24 10° SSE 19:09:24 38° E 19:14:44 10° NNE
Sich 1 Rocket 3.7 19:06:20 10° S 19:10:37 51° E 19:14:57 10° NNE
Okean 1 Rocket 3.8 19:06:57 11° SSE 19:10:39 33° E 19:14:40 10° NNE
Okean-O 2.6 19:11:08 11° SSE 19:15:25 76° ENE 19:19:51 10° N
CZ-4B R/B 4.3 19:12:18 10° S 19:17:40 45° W 19:23:01 10° NNW
Ariane Rocket 4.0 19:16:23 17° ESE 19:19:24 30° ENE 19:23:46 10° N
Cosmos 2263 Rocket 4.1 19:16:33 10° N 19:20:20 18° NE 19:24:05 10° E
CZ-4C R/B 2.9 19:17:52 10° NNE 19:21:16 58° ESE 19:24:35 10° S
Nadezhda 3 Rocket 4.0 19:16:24 10° S 19:22:34 90° W 19:28:48 10° N
Cosmos 1437 Rocket 4.2 19:21:07 10° NNE 19:24:13 22° ENE 19:25:29 19° E
USA 186 4.1 19:21:56 10° SSW 19:24:19 21° W 19:26:42 10° NW
Genesis I 2.9 19:21:13 10° NW 19:24:52 90° ESE 19:26:55 24° SE
Cosmos 44 4.1 19:20:42 10° S 19:25:33 35° ESE 19:30:22 10° NE
USA 267 3.6 19:19:08 10° NE 19:25:39 70° NNW 19:32:09 10° WSW
BREEZE-M R/B 1.6 19:24:20 10° W 19:26:51 73° SSW 19:27:40 37° ESE
Cosmos 1605 Rocket 4.3 19:23:57 10° N 19:30:11 50° ENE 19:34:28 20° SE
Okean O Rocket 2.8 19:26:14 10° S 19:30:21 41° W 19:34:31 10° NNW
Aureole 1 Rocket 3.9 19:31:46 10° N 19:33:59 19° ENE 19:34:29 18° ENE
CZ-4 R/B 4.2 19:33:28 10° SW 19:35:45 15° W 19:38:00 10° NW
Cosmos 540 Rocket 4.5 19:39:04 23° ESE 19:39:45 24° E 19:43:47 10° NE
Cosmos 1536 Rocket 3.9 19:37:35 10° NNW 19:41:59 65° W 19:45:50 13° S
Resurs 01 Rocket 3.4 19:41:21 10° SSW 19:45:13 30° W 19:49:08 10° NNW
IRS-1C Rocket 4.1 19:42:38 19° SSE 19:46:32 90° E 19:51:51 10° NNW
MOS 1 Rocket 4.3 19:46:11 23° E 19:47:24 27° ENE 19:51:05 10° N
Cosmos 2058 4.1 19:46:38 10° NNE 19:49:59 25° ENE 19:50:33 24° E
CENTAUR R/B 3.8 19:43:30 10° NW 19:51:03 48° NE 19:57:39 18° E
NOSS 3-1 (A) 3.5 19:47:38 10° SW 19:52:39 68° NW 19:58:49 10° NE
ERS-1 Rocket 2.9 19:51:26 28° SSE 19:54:07 71° ENE 19:59:07 10° N
SPOT 3 Rocket 3.8 19:55:09 30° SE 19:57:31 55° ENE 20:02:35 10° N
Tiangong 0.5 19:57:07 10° SW 19:57:17 11° SW 19:57:17 11° SW
Cosmos 1934 Rocket 4.3 19:54:45 10° NNW 20:00:51 66° W 20:06:25 13° S
USA 229 DEB 3.5 19:55:26 10° SSW 20:01:26 62° SE 20:08:06 10° NE
USA 229 3.5 19:55:32 10° SSW 20:01:33 61° ESE 20:08:11 10° NE
USA 234 4.3 19:58:35 16° S 20:03:00 34° SW 20:08:53 10° WNW
USA 281 4.0 19:59:01 13° S 20:04:46 47° WSW 20:11:06 10° NW
Cosmos 1727 Rocket 4.4 20:04:27 30° SE 20:06:50 43° E 20:12:40 10° NNE
Landsat 5 4.3 20:03:26 10° NNE 20:06:58 32° E 20:06:58 32° E
ATLAS CENTAUR R/B 1.9 20:05:36 10° NNW 20:09:11 41° NE 20:09:58 36° ENE
Cosmos 2227 Rocket 2.2 20:04:20 10° NNW 20:10:02 69° ENE 20:12:21 36° SE
Cosmos 1980 Rocket 3.5 20:13:33 22° E 20:13:33 22° E 20:16:54 10° NE
Cosmos 1892 Rocket 3.4 20:12:39 10° N 20:17:00 86° E 20:18:10 49° SSE
Cosmos 292 Rocket 4.4 20:12:53 10° NNW 20:17:24 41° ENE 20:18:28 36° E
SL-4 R/B 1.4 20:14:19 10° WNW 20:17:53 85° SSW 20:17:57 84° S
Landsat 4 4.4 20:17:01 33° SSW 20:18:04 45° W 20:21:28 10° NNW
Cosmos 1697 Rocket 2.8 20:18:57 35° SSE 20:21:02 53° ESE 20:26:33 10° NE
Cosmos 1937 Rocket 4.2 20:17:09 10° NNW 20:22:12 41° ENE 20:23:39 34° E
Cosmos 2360 4.1 20:17:18 14° SSW 20:22:12 71° ESE 20:27:54 10° NNE
COSMOS 2455 3.0 20:19:31 10° NW 20:25:32 70° WSW 20:27:59 37° SSE
ATLAS 3B R/B 3.7 20:19:55 10° WSW 20:26:58 52° NW 20:34:28 10° NE
SPOT 5 4.1 20:26:04 18° SSW 20:29:38 41° W 20:34:36 10° NNW
MetOp-A 3.3 20:30:40 59° ENE 20:30:40 59° ENE 20:34:25 10° N
Cosmos 405 Rocket 2.7 20:33:26 67° SW 20:33:49 76° WNW 20:37:32 10° N
Cosmos 1898 Rocket 3.5 20:29:40 10° NNW 20:34:55 66° ENE 20:36:04 51° ESE
Cosmos 2228 4.5 20:38:16 24° ENE 20:38:16 24° ENE 20:40:41 10° NNE
Cosmos 2297 Rocket 3.0 20:32:53 10° NW 20:38:13 44° WSW 20:40:36 28° SSW
Spot 2 Rocket 3.7 20:36:25 38° SSW 20:38:15 63° WSW 20:43:17 10° NNW
CZ-4C R/B 2.9 20:31:52 10° NW 20:38:58 85° SW 20:42:37 38° SE
BlueWalker 3 2.1 20:36:02 10° WSW 20:39:51 68° NNW 20:40:37 51° NE
ARIANE 5 R/B 3.9 20:39:49 28° ENE 20:40:00 28° ENE 20:43:50 10° N
USA 81 3.9 20:38:46 52° SSE 20:40:00 73° E 20:45:16 10° N
Terra 2.4 20:40:08 36° SSW 20:41:44 52° W 20:46:22 10° NNW
Meteor 2-13 Rocket 4.5 20:43:00 47° SSE 20:44:34 61° E 20:50:39 10° NNE
Meteor 2-1 Rocket 4.2 20:45:49 54° SE 20:46:34 59° E 20:51:59 10° NNE
Cosmos 1455 Rocket 3.4 20:46:45 43° SW 20:48:00 63° WNW 20:52:22 10° N
Spot 1 4.1 20:43:31 10° NNE 20:48:12 83° WNW 20:49:02 59° SSW
Cosmos 1725 Rocket 4.4 20:43:21 10° N 20:49:16 45° ENE 20:50:29 40° ESE
Cosmos 1459 Rocket 3.9 20:44:35 10° N 20:50:39 67° ENE 20:52:04 51° SE
ATLAS 5 CENTAUR R/B 4.3 20:48:27 10° WNW 20:50:48 16° NNW 20:53:23 10° NNE
Cosmos 2219 3.1 20:47:44 10° NNW 20:53:26 83° ENE 20:54:33 59° SE
Ariane Rocket 3.9 20:56:30 32° SW 20:58:11 42° W 21:02:59 10° NNW
Cosmos 1437 Rocket 3.9 20:56:27 10° NNW 21:00:02 35° W 21:00:22 34° WSW
Cosmos 1763 Rocket 4.0 20:57:45 20° SW 21:01:12 56° WNW 21:06:17 10° NNE
Cosmos 2263 Rocket 2.1 20:59:41 10° NNW 21:05:19 71° ENE 21:06:06 62° ESE
Cosmos 44 4.3 21:01:23 10° WSW 21:06:38 51° NW 21:11:49 10° NNE
USA 267 4.3 21:02:02 10° ENE 21:08:11 45° N 21:14:21 10° WNW
Cosmos 2082 3.6 21:06:07 10° NNW 21:11:48 78° ENE 21:12:29 67° ESE
Cosmos 2173 Rocket 4.0 21:09:05 10° N 21:15:29 80° W 21:17:01 54° S
NOSS 3-2 (A) 4.0 21:09:45 10° NW 21:17:01 77° NE 21:19:59 44° ESE
Meteor 2-3 Rocket 3.6 21:13:19 10° NNW 21:19:02 88° ENE 21:19:41 72° SSE
Cosmos 540 Rocket 4.1 21:18:45 31° WSW 21:20:57 52° WNW 21:25:58 10° NNE
Cosmos 1606 4.2 21:23:39 32° N 21:23:39 32° N 21:25:43 10° N
MOS 1 Rocket 4.2 21:25:22 35° W 21:25:26 35° W 21:29:28 10° NNW
Cosmos 2058 4.3 21:23:02 10° NNW 21:26:27 31° W 21:26:27 31° W
Meteor 2-15 4.4 21:22:52 10° NNW 21:29:01 78° W 21:29:58 64° SSW
Cosmos 1626 Rocket 4.2 21:25:06 10° NNW 21:29:06 50° W 21:29:06 50° W
Cosmos 372 Rocket 4.3 21:26:54 10° NNW 21:32:01 54° WSW 21:32:09 54° WSW
Meteor 2-15 Rocket 4.3 21:26:09 10° N 21:32:21 86° E 21:33:02 72° SSE
Cosmos 1864 Rocket 4.3 21:28:43 10° N 21:34:55 84° W 21:35:41 70° S
Cosmos 1802 Rocket 4.0 21:31:41 10° NNW 21:37:57 74° W 21:38:59 61° SSW
SL-16 R/B 3.7 21:41:08 23° ENE 21:41:08 23° ENE 21:43:57 10° NE
CENTAUR R/B 3.3 21:34:10 10° NW 21:42:23 71° SW 21:44:48 52° S
Cosmos 841 Rocket 3.5 21:43:35 71° WNW 21:43:40 71° WNW 21:48:49 10° NNE
Cosmos 2016 Rocket 3.9 21:39:08 10° NNW 21:45:15 76° W 21:45:55 69° SSW
ATLAS CENTAUR R/B 3.5 21:43:37 10° WNW 21:45:04 18° WNW 21:45:04 18° WNW
Cosmos 1844 Rocket 3.5 21:44:30 10° NNW 21:49:46 39° NE 21:50:30 37° ENE
H-2A R/B 3.8 21:54:16 34° NNW 21:54:16 34° NNW 21:56:31 10° NNW
Cosmos 2227 Rocket 3.8 21:49:17 10° NW 21:53:31 22° W 21:54:10 21° WSW
Cosmos 1980 Rocket 2.4 21:55:13 57° WSW 21:56:03 65° WNW 22:01:43 10° NNE
Cosmos 967 Rocket 4.4 21:54:04 10° NW 22:00:31 73° WSW 22:00:44 72° SW
Cosmos 2278 4.4 22:02:50 43° ENE 22:02:50 43° ENE 22:07:02 10° NE
Cosmos 1697 Rocket 4.2 22:00:32 11° WSW 22:05:16 33° NW 22:10:22 10° NNE
Cosmos 2123 Rocket 4.4 22:05:46 50° WSW 22:07:00 58° WNW 22:13:16 10° N
Cosmos 2151 4.3 22:03:51 10° N 22:06:35 37° NNE 22:06:35 37° NNE
Meteor 1-27 4.2 22:10:41 73° WNW 22:10:41 73° WNW 22:16:12 10° N
CZ-2C R/B 4.5 22:06:29 10° N 22:10:47 51° NW 22:10:47 51° NW
ARIANE 5 R/B 4.0 22:17:17 33° WNW 22:17:17 33° WNW 22:20:28 10° NNW
CZ-4C R/B 4.3 22:21:05 10° WNW 22:27:03 26° WSW 22:27:43 25° WSW
Cosmos 2227 4.4 22:22:38 10° NNW 22:27:45 66° WNW 22:27:45 66° WNW
Cosmos 2369 4.4 22:27:50 44° W 22:28:48 49° NW 22:34:18 10° NNE
Lacrosse 4 Rocket 3.3 22:33:41 26° NNE 22:33:41 26° NNE 22:35:33 10° NNE
H-2A R/B 3.8 22:28:43 10° NNE 22:30:48 26° NE 22:30:48 26° NE
NOSS 3-2 (C) 3.9 22:25:47 10° NW 22:33:11 82° SW 22:34:32 66° SSE
ALOS 2 3.8 22:35:59 41° NNW 22:35:59 41° NNW 22:38:55 10° NNW
Cosmos 2233 Rocket 4.4 22:29:11 10° NNW 22:35:06 49° W 22:35:19 49° W
Cosmos 1447 Rocket 4.5 22:42:34 71° W 22:42:42 71° W 22:48:52 10° N
Cosmos 1814 Rocket 4.5 22:45:04 56° NW 22:45:04 56° NW 22:49:40 10° NNE
Cosmos 1464 Rocket 4.0 22:38:26 10° N 22:44:49 71° ENE 22:44:59 71° E
Cosmos 2058 Rocket 4.4 22:47:28 38° N 22:47:28 38° N 22:50:12 10° N
Cosmos 2263 Rocket 4.0 22:44:35 10° NW 22:47:47 20° W 22:47:47 20° W
Cosmos 2360 Rocket 3.1 22:51:06 39° ENE 22:51:06 39° ENE 22:55:10 10° NE
USA 267 4.0 22:44:15 10° E 22:50:32 51° NNE 22:56:50 10° WNW
Cosmos 909 Rocket 4.5 22:55:34 64° SSW 22:57:01 89° ESE 23:06:23 10° NE
Meteor 2-21 4.4 22:58:06 74° E 22:58:06 74° E 23:04:08 10° NNE
Meteor 1-20 Rocket 4.3 22:53:57 10° N 22:59:08 74° NNE 22:59:08 74° NNE
Cosmos 1513 Rocket 4.4 22:53:44 10° NNW 22:59:38 73° WNW 22:59:38 73° WNW
Cosmos 1570 Rocket 4.4 23:02:43 59° NNE 23:02:43 59° NNE 23:06:56 10° NNE
Cosmos 2333 Rocket 2.9 23:03:47 43° ENE 23:03:47 43° ENE 23:08:04 10° NE
Cosmos 2322 Rocket 2.5 23:03:59 60° NE 23:03:59 60° NE 23:08:41 10° NNE
Lacrosse 5 3.2 23:05:57 31° ENE 23:05:57 31° ENE 23:08:40 10° ENE
Cosmos 2278 Rocket 4.4 22:59:41 10° N 23:03:52 20° NE 23:08:02 10° E
Cosmos 2219 Rocket 3.5 23:05:42 29° E 23:05:42 29° E 23:09:23 10° NE
Cosmos 2034 Rocket 4.0 23:00:45 10° N 23:06:57 71° E 23:07:00 71° E
Meteor 1-25 Rocket 4.3 23:05:58 10° N 23:11:03 73° N 23:11:03 73° N
Geosat 4.4 23:20:32 61° NNE 23:20:32 61° NNE 23:25:04 10° NNW
SL-16 R/B 2.6 23:22:57 57° WNW 23:23:00 57° WNW 23:28:38 10° NNE
Cosmos 1844 4.3 23:19:01 10° NW 23:23:28 47° WNW 23:23:28 47° WNW
Cosmos 1634 Rocket 4.4 23:21:37 10° N 23:27:51 55° ENE 23:28:37 52° ESE
USA 238 DEB 3.9 23:25:36 10° NW 23:32:52 64° SW 23:32:58 64° SW
USA 238 3.9 23:25:42 10° NW 23:32:58 64° SW 23:33:05 64° SW
Cosmos 1844 Rocket 3.8 23:28:28 10° NW 23:32:08 34° WNW 23:32:08 34° WNW
IDEFIX/ARIANE 42P 4.5 23:35:51 10° NE 23:39:23 18° E 23:39:49 18° E
Resurs 1-4 Rocket 4.2 23:36:36 10° NE 23:39:41 15° E 23:40:30 15° E
Cosmos 158 Rocket 4.3 23:41:25 57° N 23:41:25 57° N 23:45:33 10° NNE
Cosmos 1943 Rocket 4.4 23:37:04 10° N 23:41:26 22° NE 23:45:48 10° E
Meteor 2-2 Rocket 4.3 23:48:58 78° WNW 23:48:58 78° WNW 23:54:51 10° N
Timation 2 Rocket 4.5 23:42:47 10° NW 23:48:19 48° W 23:48:19 48° W
